Pinedale, WY

4:03 PM MDT on September 30, 2016 (GMT -0600)
Wenz

Weather History for KPNA - September, 2012

Change the Weather History Date:

Monday, September 17, 2012

  Actual Average (KBPI) Record (KBPI)
Temperature  
Mean Temperature 50 °F 49 °F  
Max Temperature 68 °F 67 °F 83 °F (1990)
Min Temperature 32 °F 31 °F 22 °F (1984)
Degree Days  
Heating Degree Days 15 16  
Month to date heating degree days 218  
Since 1 July heating degree days 511  
Cooling Degree Days 0 0  
Month to date cooling degree days 0  
Year to date cooling degree days 35  
Moisture  
Dew Point 28 °F    
Average Humidity 49    
Maximum Humidity 93    
Minimum Humidity 17    
Precipitation  
Precipitation 0.00 in 0.02 in 0.17 in (2002)
Month to date precipitation 0.43  
Year to date precipitation 5.09  
Sea Level Pressure  
Sea Level Pressure 30.26 in    
Wind  
Wind Speed 7 mph (WNW)    
Max Wind Speed 18 mph    
Max Gust Speed 24 mph    
Visibility 10 miles    
Events Thunderstorm    
T = Trace of Precipitation, MM = Missing Value Source: NWS Daily Summary

Daily Weather History Graph

Daily Weather History Graph

Search for Another Location

Airport or City:

Trip Planner

Search our weather history database for the weather conditions in past years. The results will help you decide how hot, cold, wet, or windy it might be!

Date:

Astronomy

Sep. 17, 2012 Rise Set
Actual Time 7:01 AM MDT 7:24 PM MDT
Civil Twilight 6:33 AM MDT 7:52 PM MDT
Nautical Twilight 6:00 AM MDT 8:26 PM MDT
Astronomical Twilight 5:25 AM MDT 9:00 PM MDT
Moon 8:59 AM MDT (9/17) 8:03 PM MDT (9/17)
Length of Visible Light 13h 19m
Length of Day
12h 22m
Waxing Crescent, 4% of the Moon is Illuminated
Sep 17
Waxing Crescent
Sep 22
First Quarter
Sep 29
Full
Oct 8
Last Quarter
Oct 15
New

Hourly Weather History & Observations

Time (MDT) Temp. Windchill Dew Point Humidity Pressure Visibility Wind Dir Wind Speed Gust Speed Precip Events Conditions
12:15 AM 48.2 °F - 32.0 °F 54% 30.26 in 10.0 mi WNW 10.4 mph - N/A   Clear
12:35 AM 46.4 °F 42.4 °F 32.0 °F 57% 30.24 in 10.0 mi West 8.1 mph - N/A Thunderstorm Thunderstorm
12:55 AM 42.8 °F 38.6 °F 32.0 °F 66% 30.24 in 10.0 mi West 6.9 mph - N/A   Clear
1:15 AM 42.8 °F 38.6 °F 32.0 °F 66% 30.24 in 10.0 mi West 6.9 mph - N/A   Clear
1:35 AM 42.8 °F 37.5 °F 32.0 °F 66% 30.24 in 10.0 mi West 9.2 mph - N/A   Clear
1:55 AM 42.8 °F 38.6 °F 32.0 °F 66% 30.24 in 10.0 mi West 6.9 mph - N/A   Clear
2:15 AM 42.8 °F 38.0 °F 32.0 °F 66% 30.24 in 10.0 mi WNW 8.1 mph - N/A   Clear
2:35 AM 42.8 °F 37.5 °F 32.0 °F 66% 30.24 in 10.0 mi West 9.2 mph - N/A   Clear
2:55 AM 42.8 °F 36.2 °F 32.0 °F 66% 30.24 in 10.0 mi WNW 12.7 mph - N/A   Clear
3:15 AM 42.8 °F 38.0 °F 32.0 °F 66% 30.24 in 10.0 mi WNW 8.1 mph - N/A   Clear
3:35 AM 41.0 °F 38.0 °F 32.0 °F 70% 30.24 in 10.0 mi WNW 4.6 mph - N/A   Clear
3:55 AM 42.8 °F 38.6 °F 32.0 °F 66% 30.25 in 10.0 mi WNW 6.9 mph - N/A   Clear
4:15 AM 42.8 °F - 32.0 °F 66% 30.26 in 10.0 mi Calm Calm - N/A   Clear
4:35 AM 37.4 °F 33.8 °F 30.2 °F 75% 30.26 in 10.0 mi North 4.6 mph - N/A   Clear
4:55 AM 37.4 °F 33.8 °F 30.2 °F 75% 30.27 in 10.0 mi North 4.6 mph - N/A   Clear
5:15 AM 35.6 °F 30.7 °F 30.2 °F 81% 30.27 in 10.0 mi SE 5.8 mph - N/A   Clear
5:35 AM 37.4 °F - 30.2 °F 75% 30.27 in 10.0 mi Calm Calm - N/A   Clear
5:55 AM 37.4 °F - 30.2 °F 75% 30.29 in 10.0 mi Calm Calm - N/A   Clear
6:15 AM 37.4 °F 34.9 °F 30.2 °F 75% 30.28 in 10.0 mi North 3.5 mph - N/A   Clear
6:35 AM 33.8 °F - 30.2 °F 87% 30.29 in 10.0 mi Calm Calm - N/A   Clear
6:55 AM 32.0 °F - 28.4 °F 87% 30.29 in 10.0 mi Calm Calm - N/A   Clear
7:15 AM 32.0 °F 27.5 °F 28.4 °F 87% 30.29 in 10.0 mi NNW 4.6 mph - N/A   Clear
7:35 AM 32.0 °F 28.7 °F 30.2 °F 93% 30.29 in 10.0 mi West 3.5 mph - N/A   Clear
7:55 AM 32.0 °F - 30.2 °F 93% 30.29 in 10.0 mi Calm Calm - N/A   Clear
8:15 AM 35.6 °F - 30.2 °F 81% 30.29 in 10.0 mi Calm Calm - N/A   Clear
8:35 AM 35.6 °F - 30.2 °F 81% 30.29 in 10.0 mi Calm Calm - N/A   Clear
8:55 AM 41.0 °F 39.0 °F 32.0 °F 70% 30.30 in 10.0 mi West 3.5 mph - N/A   Clear
9:15 AM 42.8 °F - 32.0 °F 66% 30.30 in 10.0 mi Calm Calm - N/A   Clear
9:35 AM 44.6 °F - 32.0 °F 61% 30.30 in 10.0 mi Calm Calm - N/A   Clear
9:55 AM 46.4 °F - 32.0 °F 57% 30.30 in 10.0 mi Calm Calm - N/A   Clear
10:15 AM 50.0 °F - 32.0 °F 50% 30.29 in 10.0 mi Calm Calm - N/A   Clear
10:35 AM 51.8 °F - 32.0 °F 47% 30.29 in 10.0 mi Calm Calm - N/A   Clear
10:55 AM 53.6 °F - 32.0 °F 44% 30.29 in 10.0 mi West 3.5 mph - N/A   Clear
11:15 AM 53.6 °F - 32.0 °F 44% 30.29 in 10.0 mi West 3.5 mph - N/A   Clear
11:35 AM 55.4 °F - 32.0 °F 41% 30.29 in 7.0 mi WNW 5.8 mph - N/A   Clear
11:55 AM 59.0 °F - 30.2 °F 34% 30.28 in 7.0 mi Calm Calm - N/A   Clear
12:15 PM 59.0 °F - 30.2 °F 34% 30.27 in 7.0 mi West 6.9 mph - N/A   Clear
12:35 PM 60.8 °F - 28.4 °F 29% 30.27 in 7.0 mi North - - N/A   Clear
12:55 PM 60.8 °F - 26.6 °F 27% 30.27 in 10.0 mi West 8.1 mph - N/A   Clear
1:15 PM 62.6 °F - 26.6 °F 26% 30.26 in 10.0 mi West 4.6 mph - N/A   Clear
1:35 PM 64.4 °F - 19.4 °F 18% 30.25 in 10.0 mi West 13.8 mph 18.4 mph N/A   Clear
1:55 PM 62.6 °F - 19.4 °F 19% 30.25 in 10.0 mi WNW 12.7 mph 21.9 mph N/A   Clear
2:15 PM 64.4 °F - 19.4 °F 18% 30.24 in 10.0 mi NW 11.5 mph 17.3 mph N/A   Clear
2:35 PM 64.4 °F - 19.4 °F 18% 30.23 in 10.0 mi West 11.5 mph - N/A   Clear
2:55 PM 64.4 °F - 19.4 °F 18% 30.23 in 10.0 mi WNW 8.1 mph 21.9 mph N/A   Clear
3:15 PM 66.2 °F - 19.4 °F 17% 30.23 in 10.0 mi West 12.7 mph 23.0 mph N/A   Clear
3:35 PM 66.2 °F - 19.4 °F 17% 30.22 in 10.0 mi West 13.8 mph 20.7 mph N/A   Clear
3:55 PM 68.0 °F - 21.2 °F 17% 30.22 in 10.0 mi WNW 15.0 mph 20.7 mph N/A   Clear
4:15 PM 66.2 °F - 21.2 °F 18% 30.22 in 10.0 mi NNW 13.8 mph 23.0 mph N/A   Clear
4:35 PM 66.2 °F - 21.2 °F 18% 30.23 in 10.0 mi WNW 17.3 mph 24.2 mph N/A   Clear
4:55 PM 66.2 °F - 19.4 °F 17% 30.23 in 10.0 mi WNW 15.0 mph 23.0 mph N/A   Clear
5:15 PM 66.2 °F - 19.4 °F 17% 30.22 in 10.0 mi WNW 13.8 mph 20.7 mph N/A   Clear
5:35 PM 64.4 °F - 21.2 °F 19% 30.23 in 10.0 mi NW 18.4 mph 24.2 mph N/A   Clear
5:55 PM 64.4 °F - 21.2 °F 19% 30.23 in 10.0 mi WNW 15.0 mph 18.4 mph N/A   Clear
6:15 PM 64.4 °F - 21.2 °F 19% 30.24 in 10.0 mi NW 12.7 mph 18.4 mph N/A   Clear
6:35 PM 62.6 °F - 23.0 °F 22% 30.24 in 10.0 mi WNW 15.0 mph - N/A   Clear
6:55 PM 62.6 °F - 24.8 °F 24% 30.24 in 10.0 mi WNW 10.4 mph - N/A   Clear
7:15 PM 59.0 °F - 24.8 °F 27% 30.24 in 10.0 mi WNW 9.2 mph - N/A   Clear
7:35 PM 55.4 °F - 24.8 °F 31% 30.25 in 10.0 mi NW 8.1 mph - N/A   Clear
7:55 PM 53.6 °F - 26.6 °F 35% 30.26 in 10.0 mi WNW 6.9 mph - N/A   Clear
8:15 PM 50.0 °F - 26.6 °F 40% 30.26 in 10.0 mi WNW 6.9 mph - N/A   Clear
8:35 PM 46.4 °F 42.9 °F 26.6 °F 46% 30.27 in 10.0 mi West 6.9 mph - N/A   Clear
8:55 PM 46.4 °F 41.9 °F 26.6 °F 46% 30.28 in 10.0 mi West 9.2 mph - N/A   Clear
9:15 PM 44.6 °F 39.2 °F 26.6 °F 49% 30.29 in 10.0 mi West 10.4 mph - N/A   Clear
9:35 PM 46.4 °F 41.9 °F 26.6 °F 46% 30.29 in 10.0 mi West 9.2 mph - N/A   Clear
10:15 PM 46.4 °F 41.1 °F 26.6 °F 46% 30.30 in 10.0 mi West 11.5 mph - N/A   Clear
10:35 PM 46.4 °F 40.7 °F 26.6 °F 46% 30.29 in 10.0 mi WNW 12.7 mph - N/A   Clear
10:55 PM 48.2 °F - 28.4 °F 46% 30.30 in 10.0 mi West 10.4 mph - N/A   Clear
11:15 PM 46.4 °F 41.1 °F 28.4 °F 50% 30.30 in 10.0 mi WNW 11.5 mph - N/A   Clear
11:35 PM 44.6 °F 38.8 °F 28.4 °F 53% 30.30 in 10.0 mi NW 11.5 mph - N/A   Clear
11:55 PM 44.6 °F 39.2 °F 28.4 °F 53% 30.30 in 10.0 mi NW 10.4 mph - N/A   Clear